Location: Unspecified
(0.0000°N, 0.0000°E)
Time: 05:28:33
(UTC+02:00)

PROBA 2 - Pass Details

Date: 31 May 2022
Orbit: 704 x 725 km, 98.2° (Epoch: 04 July)

Event Time Altitude Azimuth Distance (km) Brightness Sun altitude
Rises 07:06:46 0° 144° (SE) 3,139 ? -11.8°
Reaches altitude 10° 07:09:26 10° 131° (SE) 2,215 ? -11.2°
Maximum altitude 07:13:17 24° 78° (ENE) 1,485 ? -10.3°
Drops below altitude 10° 07:17:07 10° 25° (NNE) 2,204 ? -9.4°
Sets 07:19:46 0° 11° (NNE) 3,120 ? -8.8°
